Temperature
23 22 21 21 20 20 20 19 19 19 19 18 18 18 18 17 17 17 17 17 17 17 17 17 17 17 17 17 17 17 17 17 17 17 17 18 18 17 17 17 17 17 17
23 22 21 21 20 20 20 20 19 19 19 19 18 18 18 17 17 17 17 17 17 17 17 17 17 17 17 17 17 17 17 17 17 17 18 18 18 18 18 17 17 17 17
24 22 22 21 21 20 20 20 20 19 19 19 18 18 18 18 17 17 17 17 17 17 17 17 17 17 17 17 17 17 17 17 17 17 17 18 19 18 18 17 17 17 17
24 23 22 21 21 21 20 20 20 19 19 19 18 18 18 18 18 17 17 17 17 17 17 17 17 17 17 17 17 17 17 17 17 17 17 17 17 18 18 17 17 17 17
25 23 22 21 21 21 20 20 20 20 19 19 18 18 18 18 17 17 17 17 17 17 17 17 17 17 17 17 17 17 17 17 17 17 17 17 17 17 17 17 17 17 17
24 23 22 21 21 21 20 20 20 20 19 19 18 18 18 18 18 18 17 17 17 17 17 17 17 17 17 17 17 17 17 17 17 17 17 17 17 17 17 17 17 17 17
24 23 22 22 21 21 20 20 20 20 19 19 19 18 18 18 18 17 17 17 17 17 17 17 17 17 17 17 17 17 17 17 17 17 17 17 17 17 17 17 17 16 16
25 23 22 22 21 21 21 20 20 20 19 19 19 19 18 18 17 17 17 17 17 17 17 17 17 17 16 16 17 17 17 17 17 17 17 16 16 16 16 16 16 16 16
25 24 23 22 22 21 21 21 20 20 20 19 19 19 18 18 18 17 17 17 17 17 17 17 17 17 17 17 17 17 17 17 17 16 16 16 16 16 16 16 16 16 16
25 24 23 22 22 21 21 21 20 20 20 19 19 18 18 18 18 17 17 17 17 17 17 16 16 16 16 16 16 16 16 16 16 16 16 16 16 16 15 16 16 16 16
25 24 23 22 22 21 21 21 20 20 20 19 19 19 18 18 18 17 17 17 17 17 17 17 16 16 16 16 16 16 16 16 16 16 16 16 16 15 15 15 15 15 15
25 24 23 22 22 21 21 21 20 20 20 19 19 19 18 18 18 17 17 17 17 17 16 16 16 16 16 16 16 16 15 15 15 15 15 15 15 15 15 15 15 15 15
24 23 23 22 21 21 21 20 20 20 19 19 19 19 18 18 18 17 17 17 17 17 16 16 16 16 16 16 16 15 15 15 15 15 15 15 15 15 14 15 14 14 14
23 23 22 22 21 21 20 20 20 20 19 19 19 18 18 18 17 17 17 17 17 16 16 16 16 16 16 16 15 15 15 15 15 15 15 14 14 14 14 14 14 14 14
23 22 22 21 21 21 20 20 20 19 19 19 18 18 18 18 17 17 17 17 16 16 16 15 15 15 15 15 15 15 14 14 14 14 14 14 14 14 14 13 13 13 13
22 22 21 21 21 21 21 20 20 20 19 19 18 18 18 17 17 17 16 16 16 16 15 15 15 15 15 15 15 14 14 14 14 13 13 13 13 13 13 13 13 13 12
22 21 21 21 21 21 20 20 20 19 19 19 18 18 18 17 17 16 16 16 16 15 15 15 14 14 14 14 14 14 14 13 13 13 13 12 12 12 12 12 12 12 12
22 21 20 20 20 20 20 20 19 19 19 18 18 18 17 17 17 16 16 16 15 15 15 14 14 14 14 14 14 13 13 13 13 12 12 12 12 12 12 11 11 11 11
21 20 20 20 20 20 20 19 19 19 18 18 18 17 17 17 17 16 16 15 15 14 14 14 13 13 13 13 13 13 13 12 12 12 12 11 11 11 11 11 11 11 10
20 20 20 20 20 20 19 19 19 18 18 18 17 17 17 16 16 16 15 15 14 14 14 13 13 13 13 13 13 12 12 12 12 11 11 11 11 11 11 10 10 10 10
20 19 19 19 19 19 19 19 18 18 18 17 17 17 16 16 16 15 15 14 14 13 13 13 13 12 12 12 12 12 11 11 11 11 10 10 11 10 10 10 10 10 9
19 19 19 19 19 18 18 18 18 17 17 17 16 16 16 15 15 15 14 14 13 13 13 12 12 12 12 12 12 12 11 11 10 10 10 10 10 10 10 10 9 9 9
19 19 18 18 18 18 17 17 17 17 17 17 16 16 15 15 14 14 14 13 13 12 12 12 11 11 11 11 11 11 11 11 10 10 10 10 9 9 9 9 9 9 9
18 18 18 18 18 17 17 17 17 17 16 16 16 15 15 14 14 13 13 12 12 12 12 11 11 11 10 10 10 10 10 10 10 9 9 9 9 9 9 8 8 8 8
18 18 17 17 17 17 17 16 16 16 16 15 15 14 14 14 13 13 13 12 12 12 11 11 11 11 10 10 10 10 9 9 9 9 9 9 9 8 8 8 8 8 8
17 17 17 17 16 16 16 16 16 15 15 15 14 14 14 13 13 13 12 12 12 11 11 11 10 10 10 10 10 9 9 9 9 9 9 9 9 9 8 8 8 8 8
Wind_Speed
9 8 8 8 8 8 8 8 7 7 6 5 5 4 4 4 4 4 4 4 5 4 4 4 3 4 4 4 5 4 5 4 3 3 4 4 5 4 4 4 4 4 5
9 9 8 8 8 8 8 8 8 7 7 5 4 3 3 3 3 3 3 5 5 5 4 4 4 4 4 5 5 5 4 4 4 3 3 3 3 4 4 3 4 4 4
10 10 9 9 8 8 8 7 7 6 6 5 4 3 3 3 3 3 3 4 4 4 4 4 5 4 5 5 5 5 6 5 4 4 3 3 2 1 3 2 3 3 3
10 10 10 9 8 8 7 7 7 6 6 6 5 4 4 3 3 2 2 2 3 4 5 5 5 5 5 5 6 5 5 5 5 4 4 5 3 3 2 3 3 3 3
10 10 10 9 8 8 7 7 6 6 5 5 4 4 4 3 2 2 2 3 3 3 4 5 5 5 5 5 5 4 5 5 5 4 4 4 4 5 4 3 2 2 2
10 10 9 9 8 8 7 7 7 6 5 5 4 4 3 3 2 2 2 2 2 2 3 4 4 4 4 5 5 5 5 5 5 4 4 4 4 4 4 4 3 2 1
11 11 11 10 9 9 8 7 7 6 5 5 4 4 3 3 3 3 2 2 2 2 2 3 3 3 3 4 4 4 4 5 5 5 4 4 5 4 4 4 4 3 2
11 11 11 10 10 9 9 8 7 6 5 4 4 3 3 2 2 2 2 1 1 2 2 2 2 3 3 3 3 4 4 4 4 5 4 4 4 4 3 4 4 4 4
11 11 11 10 10 9 9 8 7 6 5 5 4 3 2 1 1 1 1 1 1 1 1 1 1 2 2 2 2 2 3 3 4 4 4 4 3 3 4 4 5 5 5
11 11 10 10 10 9 9 8 7 6 6 5 4 3 3 2 1 1 0 1 1 1 1 1 1 1 1 1 2 2 2 2 2 2 2 3 3 3 3 4 4 5 4
10 10 10 10 10 9 9 8 8 7 6 5 4 3 2 2 2 1 0 0 0 1 0 0 0 1 1 1 1 1 1 1 1 1 2 2 3 2 2 2 3 3 3
10 10 11 11 10 10 9 8 8 7 6 6 5 4 3 3 2 2 1 1 1 1 1 0 1 1 1 1 1 1 0 0 0 1 1 2 2 2 2 2 2 2 2
10 10 11 10 10 9 8 8 7 7 6 6 6 5 4 3 2 2 2 2 2 2 2 2 2 2 2 2 2 2 2 2 2 2 2 2 2 2 2 2 2 1 1
10 10 10 9 9 8 8 7 7 7 7 7 6 5 4 3 3 3 3 3 3 3 3 3 3 3 3 3 3 3 3 4 4 4 4 4 4 3 2 1 1 1 1
10 10 10 9 9 9 8 8 7 7 7 7 7 6 5 5 4 4 3 3 4 4 4 4 4 4 4 4 4 4 4 5 5 6 6 7 8 9 7 4 4 3 1
10 10 10 10 10 9 9 8 8 8 8 7 7 6 6 6 5 5 5 5 5 5 5 5 5 5 5 9 8 5 5 5 5 6 6 7 8 10 10 11 11 8 4
10 10 9 9 9 9 9 9 8 8 8 7 7 7 7 6 6 6 6 6 5 5 6 6 6 7 8 9 8 7 6 6 6 6 5 5 6 7 7 8 9 10 9
9 9 8 8 9 9 9 9 9 9 9 8 7 7 7 7 7 6 6 6 5 6 6 5 6 7 7 7 7 6 6 7 7 6 6 6 6 6 5 6 7 8 8
8 8 8 9 9 10 10 10 10 10 9 8 7 6 6 7 8 7 6 6 6 6 6 5 6 6 6 7 5 4 6 6 7 6 6 5 6 6 5 5 7 7 7
7 7 8 9 9 9 10 10 10 9 8 7 7 6 6 7 7 7 7 6 6 6 6 6 6 6 6 7 6 4 4 5 5 5 6 9 7 7 6 5 5 6 5
8 8 9 9 8 9 10 10 9 8 7 7 8 7 7 7 7 7 7 7 7 7 6 7 6 6 6 7 8 7 3 4 4 4 5 6 8 8 7 5 5 4 2
8 9 9 8 7 8 9 9 8 8 8 8 8 8 7 7 7 8 7 7 7 7 7 6 5 5 5 6 6 7 7 5 5 5 5 6 7 8 7 6 5 3 2
8 8 9 8 7 6 7 8 8 8 9 9 8 8 8 7 7 8 8 7 6 5 5 5 4 4 4 5 6 6 7 6 5 6 8 7 5 5 7 7 3 2 2
7 7 8 8 6 6 6 6 7 8 9 9 8 8 8 7 7 5 5 5 5 4 4 4 4 4 4 4 4 5 5 6 6 6 8 7 4 4 5 4 3 4 4
6 6 6 7 6 6 6 6 7 8 9 9 8 8 7 7 7 5 3 3 3 2 2 3 4 4 4 3 4 2 3 3 4 4 5 5 4 4 4 4 4 3 3
5 6 6 6 6 6 6 6 6 7 8 8 8 7 7 7 7 7 6 9 7 8 7 6 3 4 6 7 5 5 5 3 0 2 4 4 4 3 3 3 3 3 3
Wind_Direction
187 185 187 190 192 194 197 204 209 201 203 204 209 208 213 218 223 235 239 249 255 252 254 263 239 246 240 248 244 244 233 234 233 245 240 229 228 229 231 236 237 230 230
183 184 187 190 193 194 198 202 205 203 203 201 208 217 231 236 233 242 242 247 249 251 243 248 253 247 247 244 248 241 255 247 228 249 257 244 213 212 217 221 230 239 232
189 186 188 191 191 193 195 195 199 201 204 201 206 211 213 233 231 238 244 249 248 247 259 260 262 260 249 241 244 238 242 248 238 242 260 268 259 245 187 206 229 231 236
188 187 185 184 187 189 187 189 191 195 194 195 206 213 220 230 238 246 252 257 246 249 252 255 258 259 258 250 245 236 241 244 246 235 243 265 293 270 239 203 194 211 237
183 184 182 179 180 180 177 179 180 183 186 193 201 215 226 232 235 235 244 257 248 247 256 260 258 250 251 251 252 249 245 239 244 246 242 248 248 249 256 255 231 220 228
177 174 172 169 171 170 171 172 172 176 180 187 196 210 220 234 248 253 263 257 248 242 252 258 256 250 249 248 247 245 239 243 246 247 244 247 251 250 249 251 246 244 235
174 170 169 169 169 169 170 168 167 173 178 183 193 204 215 221 232 250 261 279 277 267 270 271 264 262 255 250 248 241 248 243 243 245 245 249 255 264 260 253 258 265 265
169 168 168 169 169 170 171 167 166 171 174 176 185 194 204 218 226 243 280 286 297 304 312 284 271 269 267 260 248 248 249 246 245 248 256 257 257 258 257 257 259 262 265
165 167 169 170 170 170 169 168 166 166 166 169 170 166 173 198 191 184 239 271 297 297 324 315 303 297 282 270 254 246 256 254 246 247 246 248 254 256 255 250 250 254 261
161 164 168 169 168 167 164 166 166 165 166 166 169 158 164 175 182 194 336 353 335 334 324 328 310 305 302 290 273 259 251 244 252 258 266 264 262 265 260 258 260 260 260
160 161 164 164 163 161 160 163 165 165 164 161 159 156 156 160 161 159 154 75 9 4 348 298 322 337 338 328 308 288 264 241 261 269 260 268 283 286 279 268 261 257 241
157 157 158 160 162 162 163 165 165 165 163 158 155 153 148 143 139 120 104 94 75 40 23 21 37 21 22 20 18 333 7 269 342 348 341 318 311 314 311 302 279 268 245
156 156 158 162 164 165 165 162 165 164 159 154 153 148 141 135 130 117 108 94 81 65 64 57 49 43 47 53 51 50 50 51 46 38 25 359 346 341 343 330 318 297 223
157 159 160 162 160 160 159 160 163 160 158 155 152 145 137 128 123 114 110 98 89 83 74 66 60 60 59 62 65 71 68 62 52 44 39 25 15 3 3 22 27 45 110
160 161 163 159 159 157 157 158 157 156 154 154 151 144 136 125 120 115 109 106 95 88 84 78 69 61 61 57 64 78 76 71 64 58 55 53 53 45 38 41 42 46 62
167 164 163 161 161 159 158 155 154 153 155 153 148 141 135 130 126 112 99 94 88 83 82 79 76 67 62 53 47 55 78 73 70 68 65 68 68 70 68 61 55 46 50
170 168 167 164 162 160 157 154 151 148 148 148 147 143 141 135 126 119 114 108 102 95 87 84 83 80 67 55 55 52 75 77 72 69 66 67 68 70 78 86 86 69 55
170 166 163 158 157 154 151 148 145 144 145 148 148 145 144 134 126 123 118 114 111 104 96 91 91 90 77 60 60 61 84 82 78 73 70 71 67 57 62 82 80 73 60
165 161 157 151 148 148 147 147 146 146 147 149 148 149 146 137 132 129 127 122 118 111 107 100 97 95 83 55 42 36 93 89 82 74 66 66 73 41 28 84 86 81 80
148 148 143 138 140 144 147 149 148 149 152 150 144 141 140 137 136 133 130 126 125 120 112 99 92 90 86 56 30 2 100 98 96 88 79 65 59 36 21 77 85 85 77
139 139 136 134 138 143 148 150 150 152 149 142 137 137 138 137 135 132 131 131 128 120 112 104 94 87 83 75 45 17 65 93 98 94 88 74 59 50 37 47 74 60 50
133 134 130 127 132 143 150 150 150 148 143 142 141 140 141 139 136 135 136 138 138 134 128 120 111 99 90 76 66 47 43 44 92 89 89 87 76 68 54 61 47 344 312
130 130 128 126 127 137 146 147 146 146 145 144 142 142 140 137 140 144 146 148 151 149 142 141 131 119 110 103 94 80 66 52 81 87 81 91 102 115 90 70 25 353 60
132 132 131 128 129 133 135 141 145 149 149 147 146 146 145 140 136 140 147 149 150 152 149 145 140 135 131 128 128 126 121 124 114 110 118 125 105 96 91 103 74 59 50
124 128 132 133 130 130 131 137 143 150 150 147 148 149 147 142 139 130 107 129 109 99 137 144 149 152 148 108 54 99 120 117 116 131 133 126 119 107 94 87 75 68 70
125 128 132 131 132 135 135 137 144 152 153 151 154 153 150 148 147 139 119 59 70 73 62 49 68 99 93 111 105 85 75 78 130 169 126 121 117 108 99 94 92 82 67
Height
1557 1559 1560 1561 1562 1563 1564 1565 1566 1566 1567 1567 1568 1568 1569 1569 1570 1571 1571 1571 1572 1572 1572 1573 1573 1574 1575 1575 1576 1576 1577 1577 1577 1578 1578 1578 1578 1578 1578 1579 1579 1580 1580
1554 1556 1558 1559 1560 1561 1562 1563 1564 1565 1565 1566 1567 1567 1568 1568 1569 1569 1569 1569 1570 1570 1570 1570 1571 1571 1572 1572 1573 1574 1575 1575 1576 1576 1576 1576 1577 1576 1576 1576 1577 1577 1578
1551 1554 1555 1557 1558 1560 1561 1562 1563 1564 1564 1565 1565 1565 1566 1566 1567 1567 1567 1568 1568 1568 1568 1568 1568 1569 1570 1570 1571 1571 1572 1573 1574 1574 1575 1575 1574 1575 1575 1574 1575 1575 1575
1549 1552 1554 1555 1557 1558 1559 1560 1561 1562 1563 1563 1564 1564 1564 1565 1565 1565 1565 1565 1565 1566 1566 1566 1566 1566 1567 1567 1568 1569 1570 1570 1571 1572 1572 1573 1573 1573 1573 1573 1573 1573 1573
1546 1549 1552 1554 1556 1557 1558 1559 1560 1561 1562 1562 1562 1562 1563 1564 1564 1563 1563 1563 1564 1563 1563 1563 1564 1564 1564 1565 1565 1566 1567 1568 1569 1570 1570 1570 1570 1571 1571 1571 1571 1571 1571
1545 1548 1551 1553 1554 1556 1557 1558 1559 1560 1560 1561 1561 1561 1561 1562 1562 1562 1562 1562 1562 1562 1562 1562 1561 1562 1562 1563 1563 1564 1565 1565 1566 1566 1567 1568 1568 1568 1568 1568 1568 1569 1569
1543 1546 1549 1551 1553 1555 1556 1557 1558 1559 1559 1560 1560 1560 1560 1561 1561 1561 1561 1561 1561 1561 1560 1560 1560 1560 1560 1561 1561 1562 1562 1563 1563 1564 1564 1565 1565 1566 1566 1566 1566 1566 1566
1542 1545 1548 1550 1552 1553 1555 1556 1557 1558 1558 1559 1559 1559 1559 1560 1560 1560 1560 1560 1560 1560 1559 1558 1558 1558 1559 1559 1559 1559 1560 1560 1560 1561 1561 1561 1562 1562 1563 1563 1564 1563 1564
1540 1544 1546 1549 1551 1552 1554 1556 1556 1557 1558 1558 1558 1559 1559 1559 1560 1559 1559 1559 1559 1558 1558 1557 1557 1557 1557 1557 1557 1557 1557 1558 1558 1558 1558 1558 1559 1559 1560 1560 1561 1562 1561
1539 1542 1545 1547 1550 1552 1553 1555 1556 1556 1557 1558 1558 1559 1559 1559 1559 1559 1559 1558 1558 1557 1557 1556 1556 1556 1556 1555 1555 1555 1555 1555 1555 1555 1555 1555 1556 1556 1557 1557 1558 1558 1559
1538 1541 1543 1546 1548 1551 1553 1554 1555 1556 1556 1557 1558 1558 1558 1559 1558 1558 1558 1558 1557 1557 1556 1556 1555 1555 1554 1554 1554 1554 1554 1554 1553 1553 1553 1553 1554 1554 1554 1554 1555 1555 1555
1537 1539 1542 1545 1547 1549 1552 1553 1554 1555 1556 1557 1557 1557 1558 1558 1558 1558 1558 1557 1557 1556 1555 1555 1554 1554 1553 1553 1553 1552 1553 1553 1552 1552 1552 1552 1552 1551 1552 1552 1552 1552 1552
1536 1538 1541 1543 1546 1548 1551 1552 1554 1554 1555 1556 1556 1557 1557 1557 1557 1557 1557 1557 1556 1556 1555 1554 1554 1553 1553 1552 1552 1552 1552 1552 1551 1551 1551 1550 1550 1550 1550 1549 1549 1549 1550
1535 1537 1540 1542 1544 1546 1548 1550 1552 1553 1554 1555 1556 1556 1557 1557 1557 1557 1556 1556 1556 1555 1555 1554 1554 1553 1553 1552 1552 1552 1551 1551 1551 1550 1550 1549 1549 1548 1548 1548 1547 1547 1547
1533 1536 1538 1540 1542 1545 1546 1549 1550 1552 1553 1554 1555 1555 1556 1556 1556 1556 1556 1555 1555 1555 1554 1554 1554 1553 1553 1552 1552 1551 1551 1551 1550 1550 1549 1548 1548 1547 1546 1546 1546 1546 1546
1531 1534 1536 1538 1540 1542 1544 1547 1548 1550 1551 1552 1553 1554 1554 1555 1555 1555 1555 1554 1555 1555 1555 1554 1554 1554 1553 1552 1552 1551 1551 1550 1550 1549 1549 1548 1547 1546 1546 1545 1545 1545 1545
1529 1532 1534 1536 1538 1541 1543 1545 1547 1548 1549 1551 1552 1552 1553 1554 1554 1555 1555 1555 1555 1555 1555 1555 1555 1554 1553 1553 1552 1551 1551 1550 1550 1550 1549 1549 1548 1547 1547 1546 1545 1545 1545
1527 1530 1532 1534 1537 1539 1541 1543 1545 1546 1548 1549 1551 1551 1552 1552 1553 1554 1555 1555 1555 1555 1555 1555 1554 1554 1553 1553 1552 1551 1551 1550 1550 1550 1549 1549 1548 1548 1548 1548 1547 1546 1546
1525 1527 1530 1532 1535 1537 1539 1541 1543 1545 1546 1548 1549 1550 1551 1551 1552 1553 1554 1554 1555 1555 1555 1555 1555 1554 1553 1553 1553 1552 1552 1551 1551 1550 1550 1550 1549 1549 1549 1549 1548 1548 1548
1524 1526 1529 1531 1533 1535 1538 1540 1542 1544 1545 1547 1548 1549 1550 1551 1551 1552 1553 1553 1554 1554 1555 1555 1555 1554 1554 1553 1553 1553 1553 1552 1552 1551 1550 1550 1550 1550 1549 1549 1549 1549 1549
1522 1525 1527 1529 1531 1534 1536 1538 1540 1542 1544 1545 1547 1548 1549 1550 1551 1551 1552 1553 1553 1554 1554 1554 1554 1554 1553 1553 1553 1552 1553 1553 1552 1552 1551 1551 1550 1550 1550 1550 1550 1549 1550
1521 1524 1526 1528 1530 1533 1535 1537 1539 1541 1542 1544 1546 1547 1548 1549 1550 1551 1551 1552 1553 1553 1554 1554 1554 1554 1554 1553 1553 1553 1552 1552 1552 1552 1552 1551 1551 1551 1551 1550 1550 1550 1551
1521 1523 1525 1527 1530 1532 1534 1536 1537 1539 1541 1543 1544 1545 1547 1548 1549 1550 1551 1551 1552 1553 1553 1554 1554 1554 1554 1553 1553 1553 1552 1552 1552 1552 1552 1552 1552 1552 1552 1552 1551 1552 1552
1521 1523 1525 1527 1529 1531 1532 1534 1535 1537 1539 1541 1543 1544 1545 1547 1548 1549 1550 1551 1552 1552 1553 1553 1553 1553 1553 1553 1553 1553 1553 1553 1553 1553 1553 1553 1553 1553 1553 1553 1553 1553 1553
1521 1523 1525 1526 1528 1530 1531 1533 1534 1536 1538 1539 1541 1543 1544 1545 1546 1547 1548 1549 1550 1551 1552 1552 1553 1553 1553 1553 1553 1553 1553 1553 1553 1554 1554 1555 1555 1555 1555 1555 1554 1554 1554
1521 1523 1525 1526 1527 1529 1530 1531 1532 1534 1536 1537 1539 1541 1542 1543 1545 1546 1547 1547 1548 1549 1550 1550 1551 1551 1552 1552 1552 1553 1553 1553 1553 1555 1555 1555 1555 1555 1556 1556 1555 1555 1555